METAR

Ronaldsway Weather

EGNS 292050Z 27013KT 9999 FEW008 OVC014 11/08 Q1012 NOSIG

 

TAF EGNS 160500 Z 1606/1615 28020KT 9999 FEW010 BKN025 TEMPO 1606/1609 6000 RA BKN010 PROB30 TEMPO 1613/1615 7000 -SHRA

 

 

I know some visitors found the previous airfield selection useful but this website has been updated to use a WordPress framework and the previous version is not compatible with either the latest version of  PHP or WordPress itself. This plugin is under development and airfield selection may become a feature in the future. In the meantime if anyone has a locator that they use regularly you can email me and request its addition here.